Daytona Beach Weather Center

Moon Phase Calendar



Online Cameras

 


      

Current Conditions in Daytona Beach Shores
1/17/2021 4:36:23 PM

58°F
Feels Like 53
Clouds
Humidity
54%
Pressure
30"
Wind
4.6 mph (WSW)
Dew Point
41°F
UV Index
0/10 (Low)
Visibility
6 mi

Hourly Forecast

Date & Time Sun, Jan 17
4:00 PM
Sun, Jan 17
5:00 PM
Sun, Jan 17
6:00 PM
Sun, Jan 17
7:00 PM
Sun, Jan 17
8:00 PM
Sun, Jan 17
9:00 PM
Sun, Jan 17
10:00 PM
Sun, Jan 17
11:00 PM
Mon, Jan 18
12:00 AM
Mon, Jan 18
1:00 AM
Mon, Jan 18
2:00 AM
Mon, Jan 18
3:00 AM
Mon, Jan 18
4:00 AM
Mon, Jan 18
5:00 AM
Mon, Jan 18
6:00 AM
Mon, Jan 18
7:00 AM
Mon, Jan 18
8:00 AM
Mon, Jan 18
9:00 AM
Mon, Jan 18
10:00 AM
Mon, Jan 18
11:00 AM
Mon, Jan 18
12:00 PM
Mon, Jan 18
1:00 PM
Mon, Jan 18
2:00 PM
Mon, Jan 18
3:00 PM
Mon, Jan 18
4:00 PM
Mon, Jan 18
5:00 PM
Mon, Jan 18
6:00 PM
Mon, Jan 18
7:00 PM
Mon, Jan 18
8:00 PM
Mon, Jan 18
9:00 PM
Mon, Jan 18
10:00 PM
Mon, Jan 18
11:00 PM
Tue, Jan 19
12:00 AM
Tue, Jan 19
1:00 AM
Tue, Jan 19
2:00 AM
Tue, Jan 19
3:00 AM
Tue, Jan 19
4:00 AM
Tue, Jan 19
5:00 AM
Tue, Jan 19
6:00 AM
Tue, Jan 19
7:00 AM
Tue, Jan 19
8:00 AM
Tue, Jan 19
9:00 AM
Tue, Jan 19
10:00 AM
Tue, Jan 19
11:00 AM
Tue, Jan 19
12:00 PM
Tue, Jan 19
1:00 PM
Tue, Jan 19
2:00 PM
Tue, Jan 19
3:00 PM
Condition
Clouds

Clouds

Clouds

Clouds

Clouds

Clouds

Clouds

Clouds

Clouds

Clouds

Clouds

Clouds

Clouds

Clouds

Clouds

Clouds

Clear

Clear

Clear

Clear

Clear

Clear

Clear

Clear

Clear

Clear

Clear

Clear

Clear

Clear

Clear

Clear

Clear

Clear

Clear

Clear

Clear

Clear

Clear

Clear

Clear

Clear

Clear

Clear

Clear

Clear

Clear

Clear
Temperature 58°F59°F58°F57°F56°F56°F55°F55°F55°F54°F53°F53°F52°F53°F53°F53°F52°F54°F57°F59°F61°F62°F63°F63°F63°F62°F59°F57°F56°F55°F54°F53°F53°F52°F52°F52°F52°F52°F52°F52°F53°F57°F59°F60°F61°F62°F62°F62°F
Feels Like 49°F51°F52°F53°F52°F51°F50°F49°F49°F48°F47°F47°F46°F47°F46°F45°F45°F48°F49°F51°F53°F53°F54°F53°F53°F52°F50°F49°F47°F46°F46°F45°F45°F45°F44°F44°F44°F44°F44°F45°F47°F51°F53°F55°F55°F56°F56°F55°F
Cloudiness 75%87%95%98%100%100%100%100%100%100%97%99%98%98%95%86%3%1%1%1%0%0%0%0%0%0%0%0%0%0%0%0%0%0%0%0%0%0%0%0%0%0%0%0%0%0%0%0%
Visibility 6 mi6 mi6 mi6 mi6 mi6 mi6 mi6 mi6 mi6 mi6 mi6 mi6 mi6 mi6 mi6 mi6 mi6 mi6 mi6 mi6 mi6 mi6 mi6 mi6 mi6 mi6 mi6 mi6 mi6 mi6 mi6 mi6 mi6 mi6 mi6 mi6 mi6 mi6 mi6 mi6 mi6 mi6 mi6 mi6 mi6 mi6 mi6 mi
Precipitation 0%0%0%0%0%0%0%0%0%0%0%0%0%0%0%0%0%0%0%0%0%0%0%0%0%0%0%0%0%0%0%0%0%0%0%0%0%0%0%0%0%0%0%0%0%0%0%0%
Humidity 54%56%60%62%65%67%68%69%69%69%71%72%74%72%73%75%77%71%60%53%47%42%37%33%31%32%35%37%39%40%42%43%44%45%48%50%52%53%53%53%52%48%44%42%42%42%43%46%
Dew Point 41°F43°F44°F44°F45°F45°F45°F45°F45°F44°F44°F44°F44°F45°F45°F45°F46°F46°F44°F42°F41°F39°F36°F34°F32°F32°F31°F30°F30°F30°F30°F30°F31°F32°F33°F34°F35°F36°F36°F36°F37°F37°F37°F37°F38°F39°F40°F41°F
Pressure 30"30"30.03"30.03"30.03"30.03"30.03"30.03"30.06"30.03"30.03"30.03"30.03"30.06"30.09"30.12"30.15"30.15"30.15"30.18"30.18"30.15"30.15"30.12"30.12"30.15"30.18"30.21"30.21"30.24"30.24"30.24"30.27"30.27"30.27"30.27"30.27"30.27"30.3"30.33"30.36"30.36"30.36"30.36"30.36"30.36"30.33"30.3"
Wind Speed 11.4 mph9.7 mph7.6 mph5.9 mph6.2 mph7.6 mph8 mph8 mph8.2 mph8.5 mph8.6 mph7.9 mph8.1 mph8.8 mph10.2 mph10.9 mph9.9 mph9.8 mph11.9 mph10.7 mph11.3 mph11.8 mph11.5 mph11.7 mph10.9 mph10 mph8.8 mph8.4 mph9.3 mph8.9 mph8.2 mph7.3 mph7.2 mph7.4 mph8.3 mph8.9 mph9.4 mph9.1 mph8.8 mph7.6 mph6.7 mph5.7 mph5.3 mph5.4 mph5.9 mph6.4 mph6.8 mph8.1 mph
Wind
Direction
255°
WSW
250°
WSW
246°
WSW
237°
WSW
245°
WSW
248°
WSW
255°
WSW
261°
W
261°
W
268°
W
267°
W
271°
W
275°
W
283°
WNW
289°
WNW
290°
WNW
288°
WNW
290°
WNW
301°
WNW
304°
NW
298°
WNW
293°
WNW
290°
WNW
284°
WNW
283°
WNW
285°
WNW
302°
WNW
316°
NW
323°
NW
325°
NW
327°
NNW
330°
NNW
334°
NNW
332°
NNW
337°
NNW
340°
NNW
346°
NNW
351°
N
354°
N

N
18°
NNE
34°
NE
49°
NE
57°
ENE
52°
NE
44°
NE
40°
NE
36°
NE

Daily Forecast

Date High Low Precip. Humidity
Today
Jan 17

Clouds
60 °F
47 °F
0%
49%
Monday
Jan 18

Clear
63 °F
52 °F
0%
47%
Tuesday
Jan 19

Clear
62 °F
52 °F
0%
42%
Wednesday
Jan 20

Clouds
64 °F
53 °F
0%
34%
Thursday
Jan 21

Clouds
71 °F
54 °F
0%
54%
Friday
Jan 22

Clouds
71 °F
58 °F
0%
51%
Saturday
Jan 23

Rain
68 °F
61 °F
74%
76%
Sunday
Jan 24

Rain
65 °F
63 °F
93%
85%
Monday
Jan 25

Rain
76 °F
65 °F
70%
64%
Tuesday
Jan 26

Rain
78 °F
66 °F
63%
60%
Wednesday
Jan 27

Rain
68 °F
62 °F
87%
68%
Thursday
Jan 28

Rain
62 °F
50 °F
100%
40%
Friday
Jan 29

Clear
51 °F
46 °F
0%
50%
Saturday
Jan 30

Clear
58 °F
44 °F
0%
36%
Sunday
Jan 31

Clear
61 °F
47 °F
0%
38%
Monday
Feb 1

Clouds
66 °F
52 °F
0%
41%


Temperature 8-14 Day Outlook



Precipitation 8-14 Day Outlook




Quick Links
Daytona Beach News
Daytona Beach Photos
Daytona Beach Videos




About Us
Contact Us
Site Map
Search Site
Advertise With Us
   
Daytona.USCoast.info
THE DAYTONA BEACH WEBSITE

Copyright 2021, Coastal Town
Privacy    |    Legal